WFO RAH Logo

WFO RAH Text Data

  

ASUS42 KRAH 011310
RWRRAH
NORTH CAROLINA WEATHER ROUNDUP
NATIONAL WEATHER SERVICE RALEIGH NC
800 AM EST THU FEB 01 2007

NOTE: "FAIR" INDICATES FEW OR NO CLOUDS BELOW 12,000 FEET WITH NO
SIGNIFICANT WEATHER AND/OR OBSTRUCTIONS TO VISIBILITY.

NCZ001-053-055-056-065-067-011400-
WESTERN NORTH CAROLINA
  
CITY           SKY/WX    TMP DP  RH WIND       PRES   REMARKS
ASHEVILLE      CLOUDY    28  24  85 S5        29.92F WCI  23          
JEFFERSON      CLOUDY    25  12  58 SE3       29.87S                  
MORGANTON      CLOUDY    30  25  80 SE6       30.03R WCI  24          
HICKORY        FLURRIES  29  22  75 S6        30.01F WCI  23          
RUTHERFORDTON  CLOUDY    30  27  86 SE5       30.00S WCI  25          
MOUNT AIRY     CLOUDY    28  18  64 S7        29.98F WCI  21          
$$
 
NCZ021-022-025-041-071-084-088-011400-
CENTRAL NORTH CAROLINA
  
CITY           SKY/WX    TMP DP  RH WIND       PRES   REMARKS
CHARLOTTE      SNOW      30  28  92 S3        30.06S VSB 1/4          
GREENSBORO     LGT SNOW  28  27  93 S8        30.02F VSB 1   WCI  20  
WINSTON-SALEM  LGT SNOW  28  27  93 S5        30.03F FOG     WCI  23  
RALEIGH-DURHAM LGT SNOW  34  16  47 S8        30.11S FOG     WCI  27  
FORT BRAGG     LGT SNOW  30  27  86 N3        30.12R VSB 3/4          
FAYETTEVILLE   LGT SNOW  30  25  80 SE3       30.11R VSB 3/4          
$$
 
NCZ011-015-027-028-043-044-047-080-103-011400-
NORTHEASTERN NORTH CAROLINA
  
CITY           SKY/WX    TMP DP  RH WIND       PRES   REMARKS
ROANOKE RAPIDS CLOUDY    31  17  56 CALM      30.11F                  
ROCKY MT-WILSO CLOUDY    31  19  61 CALM      30.12F                  
GREENVILLE     CLOUDY    36  21  55 CALM      30.15R                  
WASHINGTON     CLOUDY    34  25  69 CALM      30.15R                  
ELIZABETH CITY CLOUDY    32  24  72 NW3       30.15R                  
MANTEO         CLOUDY    37  27  65 CALM      30.16R                  
CAPE HATTERAS  CLOUDY    37  25  61 N6        30.13R WCI  32          
$$
 
NCZ078-087-090-091-093-098-101-011400-
SOUTHEASTERN NORTH CAROLINA
  
CITY           SKY/WX    TMP DP  RH WIND       PRES   REMARKS
LUMBERTON      RAIN      33  29  85 N7        30.09F FOG     WCI  27  
GOLDSBORO      LGT SNOW  30  25  80 SE2       30.15R VSB 3/4          
KINSTON        LGT SNOW  32  27  80 CALM      30.16R VSB 3/4          
NEW BERN       CLOUDY    35  23  61 N3        30.14R                  
CHERRY POINT   CLOUDY    36  25  64 NE6       30.13R WCI  31          
BEAUFORT       CLOUDY    37  27  67 NE6       30.12R WCI  32          
JACKSONVILLE   LGT RAIN  34  25  69 N7        30.13R WCI  28          
WILMINGTON     CLOUDY    36  24  62 N6        30.09R WCI  31          
$$